sat.trackr.live / text

‹ back to catalog

STARLINK-36573

NORAD 67539 · 2026-014H

PAYLOAD ACTIVE UNKNOWN

§ Identity

Operator
Country
US
Launch date
2026-01-22
Launch site
AFWTR
Launch vehicle
Mass (kg)
RCS (m²)

Purposes: comms

External: N2YO · Heavens-Above · Gunter

§ Orbital elements

Epoch: 2026-09-18T02:59:10.925664Z

Period
93.90 min
Inclination
97.2816°
Eccentricity
0.0003172
Mean motion
15.33474867 rev/d
Perigee alt
463.3 km
Apogee alt
467.6 km
Semi-major
6,843.6 km
B*
5.4926e-4
RAAN
146.5166°
Arg perigee
77.5041°
Mean anomaly
282.6557°
Rev number
3,827

§ Raw data

STARLINK-365731 67539U 26014H   26261.12443201  .00017718  00000+0  54926-3 0  99992 67539  97.2816 146.5166 0003172  77.5041 282.6557 15.33474867 38274

JSON: /api/v1/satellites/67539 · /tle

For live sub-satellite position, see the globe view (requires WebGL).

§ Visibility from observer

Set your observer location to see the next 7 days of passes ≥ 10°. The values pass through the URL so the page stays shareable.

No JS? Fill the form by hand. The geolocation button needs JavaScript.